Starlink 35738

operational
NORAD ID: 67116 Int'l Des: 2025-299 Owner: SPXS Country: US Constellation: starlink
LEOCIRCULAR

Über Starlink 35738

Beschreibung wird geladen...

Live-Position

3D-Globus wird geladen...

Nächste Überflüge

Höhenverlauf

Altitude vs Time

uPlot chart will show altitude changes over time

Zweizeiliger Elementsatz

1 67116C 25299Q 25349.45881944 .00311790 00000+0 49147-3 0 3491
2 67116 43.0015 301.3144 0007276 266.2814 116.5868 16.02514791 15
Epoch: 15. Dez. 2025 • Age: 68 hours

Aktueller Status

Höhe 264.4 km
Geschwindigkeit 7.75 km/s
Subsatellitenpunkt 22.87°N, 71.73°W
Startdatum 15. Dez. 2025
Alter 2 days
Typ internet

Technische Details

Klassifizierung Payload
Masse 575.00 kg
Trockenmasse 530.00 kg
Gesamtmasse 575.00 kg
Länge 0.30 m
Durchmesser 4.10 m
Spannweite 29.00 m
Form Box + pan
Hersteller SPXS
Bus-Typ Starlink V2MO
Phasenstatus In Orbit
Besitzer/Staat SPXS/US

Große Konstellationen

Loading constellations...